Погода в Шувакише

Россия / Свердловская область     56°55′14″N   60°28′52″E
темп.,
°C
ветер,
м/с
пор.,
м/с
влажн.,
%
обл.,
%
осадки,
мм/ч
давл.,
гПа
погр.,
м
6 декабря, пн
пн623:00−5з3782100 0.1 1016412
02:00−6юз3887100 0.0 1016379
05:00−5зюз3987100 0.0 1016519
08:00−7зсз3982100 0.0 1016655
11:00−11зсз477221 0.0 1019525
14:00−12зсз586913 0.0 1020603
17:00−14зсз49775 0.0 1022465
20:00−15зсз411795 0.0 1023445
7 декабря, вт
вт723:00−15з412805 0.0 1025443
02:00−16зсз511815 0.0 1026411
05:00−16з410835 0.0 1028310
08:00−16з512845 0.0 1030356
11:00−15з514825 0.0 1032405
14:00−13з513722 0.0 1032455
17:00−14з513750 0.0 1034428
20:00−15з513815 0.0 1035405
8 декабря, ср
ср823:00−14з4108643 0.0 1036311
02:00−14з398581 0.0 1037250
05:00−13з3782100 0.0 1038202
08:00−13юз1286100 0.0 103848
11:00−11юз1273100 0.0 103982
14:00−8ююз1363100 0.0 1037111
17:00−8ю2569100 0.0 1037104
20:00−7ю2872100 0.1 1036176
9 декабря, чт
чт923:00−6ююз31160100 0.2 1034326
02:00−4юз41384100 0.1 1034482
05:00−4юз41388100 0.1 1033459
08:00−3зюз41487100 0.0 1033437
11:00−3зюз4128391 0.0 1033419
14:00−2зюз41179100 0.0 1033410
17:00−3юз3108554 0.0 1033249
20:00−5юз2787100 0.0 1033142
10 декабря, пт
пт1023:00−5ююз2586100 0.0 103292
02:00−5ююз258294 0.0 103272
05:00−5ююз2480100 0.0 103156
08:00−4юз1179100 0.0 103022
11:00−4ююз1177100 0.0 103020
14:00−2ююз1176100 0.0 102925
17:00−5ююз1186100 0.0 102911
20:00−4ююз1185100 0.0 102810